Manistique, MI

7:22 PM EDT on April 28, 2017 (GMT -0400)
Schoolcraft County

Weather History for KISQ - August, 2014

Change the Weather History Date:

Wednesday, August 20, 2014

  Actual Average Record
Temperature  
Mean Temperature 62 °F -  
Max Temperature 67 °F 72 °F 86 °F (1955)
Min Temperature 58 °F 52 °F 39 °F (1956)
Degree Days  
Heating Degree Days 2    
Growing Degree Days 12 (Base 50)    
Moisture  
Dew Point 61 °F    
Average Humidity 96    
Maximum Humidity 100    
Minimum Humidity 84    
Precipitation  
Precipitation 0.08 in - - ()
Sea Level Pressure  
Sea Level Pressure 29.83 in    
Wind  
Wind Speed 5 mph (NNW)    
Max Wind Speed 8 mph    
Max Gust Speed -    
Visibility 7 miles    
Events Fog , Rain    
Averages and records for this station are not official NWS values.
T = Trace of Precipitation, MM = Missing Value Source: NWS Daily Summary

Daily Weather History Graph

Daily Weather History Graph

Search for Another Location

Airport or City:

Trip Planner

Search our weather history database for the weather conditions in past years. The results will help you decide how hot, cold, wet, or windy it might be!

Date:

Astronomy

Aug. 20, 2014 Rise Set
Actual Time 6:50 AM EDT 8:44 PM EDT
Civil Twilight 6:18 AM EDT 9:16 PM EDT
Nautical Twilight 5:39 AM EDT 9:55 PM EDT
Astronomical Twilight 4:55 AM EDT 10:38 PM EDT
Moon 2:24 AM EDT (8/20) 5:34 PM EDT (8/20)
Length of Visible Light 14h 58m
Length of Day
13h 54m
Waning Crescent, 21% of the Moon is Illuminated
Aug 20
Waning Crescent
Aug 25
New
Sep 2
First Quarter
Sep 8
Full
Sep 15
Last Quarter

Hourly Weather History & Observations

Time (EDT) Temp. Dew Point Humidity Pressure Visibility Wind Dir Wind Speed Gust Speed Precip Events Conditions
12:15 AM 61.2 °F 61.2 °F 100% 29.72 in 3.0 mi ESE 6.9 mph - N/A   Overcast
12:34 AM 60.8 °F 60.8 °F 100% 29.72 in 3.0 mi ESE 6.9 mph - N/A   Overcast
12:54 AM 60.4 °F 60.4 °F 100% 29.72 in 3.0 mi ESE 4.6 mph - N/A   Overcast
1:14 AM 60.4 °F 60.4 °F 100% 29.72 in 3.0 mi East 5.8 mph - N/A   Overcast
1:34 AM 60.8 °F 60.8 °F 100% 29.72 in 1.8 mi ENE 3.5 mph - N/A   Overcast
1:55 AM 60.8 °F 60.8 °F 100% 29.73 in 1.8 mi Calm Calm - N/A   Overcast
2:14 AM 60.8 °F 60.8 °F 100% 29.73 in 1.2 mi Calm Calm - N/A   Overcast
2:34 AM 60.8 °F 60.8 °F 100% 29.73 in 0.8 mi Calm Calm - N/A   Overcast
2:55 AM 60.8 °F 60.8 °F 100% 29.73 in 0.5 mi Calm Calm - N/A Fog Fog
3:14 AM 60.8 °F 60.8 °F 100% 29.73 in 0.5 mi Calm Calm - N/A Fog Fog
3:34 AM 60.8 °F 60.8 °F 100% 29.73 in 0.5 mi Calm Calm - N/A Fog Fog
3:54 AM 60.8 °F 60.8 °F 100% 29.74 in 0.8 mi Calm Calm - 0.01 in Rain Rain
4:14 AM 60.8 °F 60.8 °F 100% 29.73 in 1.2 mi Calm Calm - N/A   Heavy Drizzle
4:35 AM 60.8 °F 60.8 °F 100% 29.74 in 1.8 mi Calm Calm - 0.02 in Rain Heavy Rain
4:54 AM 60.8 °F 60.8 °F 100% 29.74 in 2.5 mi NNW 3.5 mph - 0.02 in   Light Drizzle
5:14 AM 60.8 °F 60.8 °F 100% 29.75 in 2.5 mi North 3.5 mph - N/A   Light Drizzle
5:35 AM 60.6 °F 60.6 °F 100% 29.75 in 3.0 mi North 8.1 mph - N/A   Overcast
5:54 AM 59.9 °F 59.9 °F 100% 29.75 in 4.0 mi North 5.8 mph - N/A   Overcast
6:14 AM 59.2 °F 59.2 °F 100% 29.76 in 5.0 mi North 5.8 mph - N/A   Overcast
6:35 AM 59.0 °F 58.8 °F 99% 29.77 in 10.0 mi NNW 6.9 mph - N/A   Overcast
6:54 AM 58.8 °F 58.5 °F 99% 29.77 in 10.0 mi NNW 6.9 mph - N/A   Overcast
7:15 AM 58.6 °F 58.3 °F 99% 29.78 in 10.0 mi NNW 4.6 mph - N/A   Overcast
7:34 AM 58.5 °F 58.3 °F 99% 29.79 in 5.0 mi NNW 5.8 mph - N/A   Overcast
7:54 AM 58.5 °F 58.3 °F 99% 29.79 in 2.0 mi NNW 5.8 mph - N/A   Overcast
8:14 AM 58.5 °F 58.1 °F 99% 29.79 in 7.0 mi NNW 5.8 mph - N/A   Overcast
8:34 AM 58.5 °F 58.1 °F 99% 29.80 in 2.5 mi North 6.9 mph - N/A Rain Rain
8:55 AM 58.8 °F 58.5 °F 99% 29.80 in 2.5 mi North 8.1 mph - 0.01 in Rain Rain
9:14 AM 59.0 °F 59.0 °F 100% 29.81 in 2.5 mi North 5.8 mph - 0.01 in   Drizzle
9:34 AM 59.2 °F 59.0 °F 99% 29.81 in 4.0 mi NNW 6.9 mph - 0.01 in   Light Drizzle
9:55 AM 59.9 °F 59.5 °F 99% 29.81 in 10.0 mi North 8.1 mph - 0.01 in   Overcast
10:14 AM 60.1 °F 59.7 °F 99% 29.81 in 7.0 mi NNW 8.1 mph - N/A   Drizzle
10:54 AM 61.0 °F 60.4 °F 98% 29.82 in 10.0 mi North 5.8 mph - N/A   Overcast
11:14 AM 61.2 °F 60.3 °F 97% 29.82 in 10.0 mi North 5.8 mph - N/A   Overcast
11:35 AM 61.0 °F 60.3 °F 97% 29.83 in 7.0 mi North 4.6 mph - N/A   Drizzle
11:54 AM 61.2 °F 60.6 °F 98% 29.84 in 3.0 mi North 5.8 mph - N/A   Heavy Drizzle
12:14 PM 62.1 °F 61.5 °F 98% 29.84 in 5.0 mi NNW 5.8 mph - 0.01 in   Heavy Drizzle
12:35 PM 62.1 °F 61.2 °F 97% 29.85 in 7.0 mi North 3.5 mph - 0.01 in Rain Light Rain
12:54 PM 62.6 °F 61.9 °F 97% 29.85 in 4.0 mi North 4.6 mph - 0.02 in   Drizzle
1:14 PM 62.8 °F 62.1 °F 97% 29.86 in 5.0 mi NW 4.6 mph - N/A Rain Rain
1:34 PM 62.6 °F 61.7 °F 97% 29.86 in 10.0 mi NNW 4.6 mph - 0.01 in   Drizzle
1:54 PM 62.8 °F 61.9 °F 97% 29.86 in 10.0 mi NNW 6.9 mph - 0.01 in   Overcast
2:14 PM 63.5 °F 62.1 °F 95% 29.86 in 10.0 mi NW 6.9 mph - N/A   Overcast
2:34 PM 64.2 °F 62.6 °F 94% 29.86 in 10.0 mi NNW 6.9 mph - N/A   Overcast
2:54 PM 63.9 °F 61.7 °F 93% 29.88 in 10.0 mi NW 5.8 mph - N/A   Overcast
3:15 PM 65.3 °F 62.4 °F 90% 29.88 in 10.0 mi NW 6.9 mph - N/A   Overcast
3:34 PM 64.8 °F 61.7 °F 90% 29.88 in 10.0 mi NW 6.9 mph - N/A   Overcast
3:54 PM 63.9 °F 62.4 °F 95% 29.88 in 1.8 mi NW 4.6 mph - N/A   Drizzle
4:15 PM 63.9 °F 62.4 °F 95% 29.88 in 7.0 mi NW 4.6 mph - N/A   Overcast
4:34 PM 64.4 °F 62.6 °F 94% 29.88 in 10.0 mi NW 4.6 mph - N/A   Overcast
4:54 PM 64.4 °F 62.6 °F 94% 29.88 in 4.0 mi NNW 6.9 mph - N/A   Overcast
5:14 PM 65.5 °F 63.1 °F 92% 29.89 in 10.0 mi NNW 4.6 mph - N/A   Overcast
5:34 PM 65.7 °F 62.6 °F 90% 29.89 in 10.0 mi NNW 3.5 mph - N/A   Overcast
5:55 PM 67.5 °F 62.6 °F 84% 29.88 in 10.0 mi NNW 6.9 mph - N/A   Overcast
6:14 PM 66.6 °F 62.4 °F 86% 29.88 in 10.0 mi North 5.8 mph - N/A   Overcast
6:34 PM 67.1 °F 62.4 °F 85% 29.89 in 10.0 mi NNW 4.6 mph - N/A   Overcast
6:55 PM 66.6 °F 62.1 °F 85% 29.90 in 10.0 mi North 5.8 mph - N/A   Overcast
7:14 PM 66.7 °F 62.4 °F 86% 29.90 in 10.0 mi North 3.5 mph - N/A   Overcast
7:34 PM 65.5 °F 61.7 °F 88% 29.91 in 10.0 mi NW 4.6 mph - N/A   Overcast
7:54 PM 64.9 °F 61.7 °F 89% 29.92 in 10.0 mi NW 4.6 mph - N/A   Overcast
8:14 PM 64.0 °F 60.8 °F 89% 29.92 in 10.0 mi NNW 4.6 mph - N/A   Overcast
8:35 PM 63.5 °F 60.8 °F 91% 29.92 in 10.0 mi NNW 3.5 mph - N/A   Overcast
8:54 PM 63.0 °F 60.3 °F 91% 29.92 in 10.0 mi North 4.6 mph - N/A   Overcast
9:14 PM 62.8 °F 60.3 °F 91% 29.93 in 10.0 mi North 3.5 mph - N/A   Overcast
9:35 PM 62.6 °F 60.1 °F 91% 29.94 in 10.0 mi Calm Calm - N/A   Overcast
9:54 PM 62.6 °F 60.3 °F 92% 29.94 in 10.0 mi North 3.5 mph - N/A   Overcast
10:14 PM 62.2 °F 60.3 °F 93% 29.95 in 10.0 mi Calm Calm - N/A   Overcast
10:34 PM 62.1 °F 60.3 °F 94% 29.95 in 10.0 mi Calm Calm - N/A   Overcast
10:54 PM 62.1 °F 60.1 °F 93% 29.95 in 10.0 mi North 3.5 mph - N/A   Overcast
11:15 PM 61.9 °F 59.9 °F 93% 29.95 in 10.0 mi North 4.6 mph - N/A   Overcast
11:34 PM 61.7 °F 59.9 °F 94% 29.95 in 10.0 mi NNE 4.6 mph - N/A   Overcast
11:54 PM 60.8 °F 59.5 °F 96% 29.94 in 10.0 mi North 6.9 mph - N/A   Overcast